Easton, MD

3:03 PM EST on November 12, 2019 (GMT -0500)
Easton / Newnam

Weather History for KESN - September, 2019

Change the Weather History Date:

Tuesday, September 3, 2019

  Actual Average Record
Temperature  
Mean Temperature 77 °F -  
Max Temperature 86 °F 84 °F 95 °F (1961)
Min Temperature 68 °F 61 °F 41 °F (1967)
Cooling Degree Days 12    
Growing Degree Days 27 (Base 50)    
Moisture  
Dew Point 68 °F    
Average Humidity 83    
Maximum Humidity 97    
Minimum Humidity 48    
Precipitation  
Precipitation 0.61 in - - ()
Sea Level Pressure  
Sea Level Pressure 30.05 in    
Wind  
Wind Speed 5 mph (NNE)    
Max Wind Speed 15 mph    
Max Gust Speed 20 mph    
Visibility 9 miles    
Events Rain    
Averages and records for this station are not official NWS values.
T = Trace of Precipitation, MM = Missing Value Source: NWS Daily Summary

Daily Weather History Graph

Daily Weather History Graph

Search for Another Location

Airport or City:

Astronomy

Sep. 03, 2019 Rise Set
Actual Time 6:34 AM EDT 7:31 PM EDT
Civil Twilight 6:07 AM EDT 7:58 PM EDT
Nautical Twilight 5:35 AM EDT 8:31 PM EDT
Astronomical Twilight 5:01 AM EDT 9:04 PM EDT
Moon 11:22 AM EDT (9/3) 10:30 PM EDT (9/3)
Length of Visible Light 13h 51m
Length of Day
12h 56m
Waxing Crescent, 24% of the Moon is Illuminated
Sep 3
Waxing Crescent
Sep 5
First Quarter
Sep 14
Full
Sep 21
Last Quarter
Sep 28
New

Hourly Weather History & Observations

Time (EDT) Temp. Heat Index Dew Point Humidity Pressure Visibility Wind Dir Wind Speed Gust Speed Precip Events Conditions
12:19 AM 75.2 °F - 70.7 °F 86% 30.04 in 7.0 mi NW 15.0 mph 19.6 mph 0.08 in Rain Heavy Rain
12:39 AM 73.2 °F - 70.5 °F 91% 30.05 in 5.0 mi NNE 10.4 mph 18.4 mph 0.61 in Rain Light Rain
12:59 AM 71.6 °F - 69.8 °F 94% 30.04 in 10.0 mi NNE 6.9 mph - 0.61 in   Mostly Cloudy
1:19 AM 71.2 °F - 69.4 °F 94% 30.04 in 10.0 mi North 5.8 mph - N/A   Scattered Clouds
1:39 AM 71.2 °F - 69.8 °F 95% 30.05 in 10.0 mi Calm Calm - N/A   Mostly Cloudy
1:59 AM 70.9 °F - 69.4 °F 95% 30.05 in 10.0 mi Calm Calm - N/A   Scattered Clouds
2:19 AM 70.5 °F - 69.3 °F 96% 30.05 in 10.0 mi SSW 4.6 mph - N/A   Clear
2:39 AM 69.8 °F - 68.9 °F 97% 30.04 in 7.0 mi WNW 3.5 mph - N/A   Clear
2:59 AM 69.8 °F - 68.9 °F 97% 30.04 in 5.0 mi Calm Calm - N/A   Mostly Cloudy
3:19 AM 70.0 °F - 68.9 °F 96% 30.03 in 7.0 mi Calm Calm - N/A   Mostly Cloudy
3:39 AM 70.2 °F - 69.1 °F 96% 30.03 in 10.0 mi Calm Calm - N/A   Scattered Clouds
3:59 AM 70.0 °F - 68.9 °F 96% 30.03 in 10.0 mi Calm Calm - N/A   Scattered Clouds
4:19 AM 70.0 °F - 68.9 °F 96% 30.03 in 7.0 mi Calm Calm - N/A   Clear
4:39 AM 69.1 °F - 68.0 °F 96% 30.03 in 7.0 mi Calm Calm - N/A   Clear
4:59 AM 69.1 °F - 68.0 °F 96% 30.03 in 7.0 mi Calm Calm - N/A   Clear
5:19 AM 68.9 °F - 67.8 °F 96% 30.03 in 10.0 mi NNW 3.5 mph - N/A   Clear
5:39 AM 68.9 °F - 67.8 °F 96% 30.03 in 10.0 mi Calm Calm - N/A   Clear
5:40 AM 68.7 °F - 67.6 °F 96% 30.03 in 10.0 mi Calm Calm - N/A   Clear
5:45 AM 69.8 °F - 68.0 °F 94% 30.04 in 10.0 mi Calm Calm - N/A   Scattered Clouds
6:45 AM 68.0 °F - 66.2 °F 94% 30.07 in 10.0 mi Calm Calm - N/A   Clear
7:50 AM 71.6 °F - 69.8 °F 94% 30.08 in 10.0 mi North 4.6 mph - N/A   Clear
8:50 AM 73.4 °F - 69.8 °F 88% 30.09 in 10.0 mi North 9.2 mph - N/A   Clear
9:50 AM 77.0 °F - 69.8 °F 78% 30.10 in 10.0 mi NNE 6.9 mph - N/A   Clear
10:50 AM 80.6 °F 82.7 °F 66.2 °F 61% 30.10 in 10.0 mi North 3.5 mph - N/A   Clear
11:50 AM 82.4 °F 83.9 °F 64.4 °F 54% 30.09 in 10.0 mi NNE 4.6 mph - N/A   Clear
12:45 PM 84.2 °F 85.6 °F 64.4 °F 51% 30.08 in 10.0 mi NNE 3.5 mph - N/A   Clear
1:45 PM 84.2 °F 85.0 °F 62.6 °F 48% 30.07 in 10.0 mi NNW 4.6 mph - N/A   Partly Cloudy
2:49 PM 86.0 °F 87.3 °F 64.4 °F 48% 30.06 in 10.0 mi West 4.6 mph - N/A   Partly Cloudy
3:50 PM 86.0 °F 88.2 °F 66.2 °F 51% 30.05 in 10.0 mi WNW 9.2 mph - N/A   Partly Cloudy
4:57 PM 86.0 °F 88.2 °F 66.2 °F 51% 30.04 in 10.0 mi WSW 3.5 mph - N/A   Partly Cloudy
5:53 PM 84.2 °F 86.6 °F 66.2 °F 55% 30.04 in 10.0 mi Calm Calm - N/A   Scattered Clouds
6:47 PM 82.4 °F 84.6 °F 66.2 °F 58% 30.04 in 10.0 mi Calm Calm - N/A   Clear
7:49 PM 78.8 °F - 69.8 °F 74% 30.05 in 10.0 mi ESE 4.6 mph - N/A   Partly Cloudy
8:45 PM 75.2 °F - 69.8 °F 83% 30.05 in 10.0 mi ESE 6.9 mph - N/A   Clear
9:45 PM 73.4 °F - 69.8 °F 88% 30.04 in 10.0 mi ESE 5.8 mph - N/A   Clear
10:19 PM 73.6 °F - 68.5 °F 84% 30.05 in 10.0 mi SE 4.6 mph - N/A   Clear
10:39 PM 74.1 °F - 68.7 °F 83% 30.05 in 10.0 mi Calm Calm - N/A   Clear
10:59 PM 73.2 °F - 68.4 °F 85% 30.05 in 10.0 mi SE 6.9 mph - N/A   Clear
11:19 PM 73.4 °F - 68.4 °F 84% 30.05 in 10.0 mi SSE 5.8 mph - N/A   Clear
11:39 PM 72.7 °F - 68.5 °F 87% 30.05 in 10.0 mi SSE 5.8 mph - N/A   Clear
11:59 PM 72.5 °F - 68.9 °F 88% 30.05 in 10.0 mi SSE 3.5 mph - N/A   Clear